Year,Month,Day,Hour,Minute,Value (Times are PST for temperature in C)
2018,04,01,00,00,8.10
2018,04,01,00,01,8.10
2018,04,01,00,02,8.20
2018,04,01,00,03,8.20
2018,04,01,00,04,8.20
2018,04,01,00,05,8.30
2018,04,01,00,06,8.30
2018,04,01,00,07,8.30
2018,04,01,00,08,8.30
2018,04,01,00,09,8.30
2018,04,01,00,10,8.30
2018,04,01,00,11,8.30
2018,04,01,00,12,8.30
2018,04,01,00,13,8.30
2018,04,01,00,14,8.30
2018,04,01,00,15,8.20
2018,04,01,00,16,8.20
2018,04,01,00,17,8.30
2018,04,01,00,18,8.30
2018,04,01,00,19,8.30
2018,04,01,00,20,8.30
2018,04,01,00,21,8.30
2018,04,01,00,22,8.30
2018,04,01,00,23,8.30
2018,04,01,00,24,8.30
2018,04,01,00,25,8.30
2018,04,01,00,26,8.20
2018,04,01,00,27,8.20
2018,04,01,00,28,8.20
2018,04,01,00,29,8.20
2018,04,01,00,30,8.20
2018,04,01,00,31,8.30
2018,04,01,00,32,8.30
2018,04,01,00,33,8.30
2018,04,01,00,34,8.40
2018,04,01,00,35,8.40
2018,04,01,00,36,8.40
2018,04,01,00,37,8.40
2018,04,01,00,38,8.40
2018,04,01,00,39,8.40
2018,04,01,00,40,8.50
2018,04,01,00,41,8.50
2018,04,01,00,42,8.50
2018,04,01,00,43,8.50
2018,04,01,00,44,8.50
2018,04,01,00,45,8.50
2018,04,01,00,46,8.50
2018,04,01,00,47,8.40
2018,04,01,00,48,8.40
2018,04,01,00,49,8.40
2018,04,01,00,50,8.40
2018,04,01,00,51,8.40
2018,04,01,00,52,8.50
2018,04,01,00,53,8.50
2018,04,01,00,54,8.50
2018,04,01,00,55,8.50
2018,04,01,00,56,8.50
2018,04,01,00,57,8.50
2018,04,01,00,58,8.50
2018,04,01,00,59,8.50
2018,04,01,01,00,8.50
2018,04,01,01,01,8.40
2018,04,01,01,02,8.40
2018,04,01,01,03,8.40
2018,04,01,01,04,8.40
2018,04,01,01,05,8.40
2018,04,01,01,06,8.40
2018,04,01,01,07,8.30
2018,04,01,01,08,8.30
2018,04,01,01,09,8.30
2018,04,01,01,10,8.30
2018,04,01,01,11,8.30
2018,04,01,01,12,8.30
2018,04,01,01,13,8.30
2018,04,01,01,14,8.30
2018,04,01,01,15,8.30
2018,04,01,01,16,8.20
2018,04,01,01,17,8.20
2018,04,01,01,18,8.20
2018,04,01,01,19,8.10
2018,04,01,01,20,8.10
2018,04,01,01,21,8.10
2018,04,01,01,22,8.00
2018,04,01,01,23,7.90
2018,04,01,01,24,7.90
2018,04,01,01,25,7.80
2018,04,01,01,26,7.80
2018,04,01,01,27,7.80
2018,04,01,01,28,7.70
2018,04,01,01,29,7.70
2018,04,01,01,30,7.70
2018,04,01,01,31,7.70
2018,04,01,01,32,7.70
2018,04,01,01,33,7.70
2018,04,01,01,34,7.70
2018,04,01,01,35,7.70
2018,04,01,01,36,7.60
2018,04,01,01,37,7.60
2018,04,01,01,38,7.40
2018,04,01,01,39,7.30
2018,04,01,01,40,7.20
2018,04,01,01,41,7.10
2018,04,01,01,42,7.00
2018,04,01,01,43,7.00
2018,04,01,01,44,6.90
2018,04,01,01,45,6.80
2018,04,01,01,46,6.70
2018,04,01,01,47,6.70
2018,04,01,01,48,6.60
2018,04,01,01,49,6.60
2018,04,01,01,50,6.60
2018,04,01,01,51,6.50
2018,04,01,01,52,6.50
2018,04,01,01,53,6.50
2018,04,01,01,54,6.40
2018,04,01,01,55,6.40
2018,04,01,01,56,6.40
2018,04,01,01,57,6.30
2018,04,01,01,58,6.30
2018,04,01,01,59,6.30
2018,04,01,02,00,6.30
2018,04,01,02,01,6.30
2018,04,01,02,02,6.30
2018,04,01,02,03,6.20
2018,04,01,02,04,6.20
2018,04,01,02,05,6.20
2018,04,01,02,06,6.20
2018,04,01,02,07,6.20
2018,04,01,02,08,6.20
2018,04,01,02,09,6.20
2018,04,01,02,10,6.20
2018,04,01,02,11,6.20
2018,04,01,02,12,6.20
2018,04,01,02,13,6.20
2018,04,01,02,14,6.30
2018,04,01,02,15,6.30
2018,04,01,02,16,6.30
2018,04,01,02,17,6.30
2018,04,01,02,18,6.30
2018,04,01,02,19,6.30
2018,04,01,02,20,6.30
2018,04,01,02,21,6.30
2018,04,01,02,22,6.30
2018,04,01,02,23,6.30
2018,04,01,02,24,6.30
2018,04,01,02,25,6.30
2018,04,01,02,26,6.30
2018,04,01,02,27,6.40
2018,04,01,02,28,6.40
2018,04,01,02,29,6.40
2018,04,01,02,30,6.50
2018,04,01,02,31,6.40
2018,04,01,02,32,6.40
2018,04,01,02,33,6.50
2018,04,01,02,34,6.40
2018,04,01,02,35,6.40
2018,04,01,02,36,6.40
2018,04,01,02,37,6.40
2018,04,01,02,38,6.40
2018,04,01,02,39,6.40
2018,04,01,02,40,6.40
2018,04,01,02,41,6.50
2018,04,01,02,42,6.50
2018,04,01,02,43,6.50
2018,04,01,02,44,6.50
2018,04,01,02,45,6.50
2018,04,01,02,46,6.50
2018,04,01,02,47,6.50
2018,04,01,02,48,6.40
2018,04,01,02,49,6.40
2018,04,01,02,50,6.40
2018,04,01,02,51,6.30
2018,04,01,02,52,6.30
2018,04,01,02,53,6.30
2018,04,01,02,54,6.30
2018,04,01,02,55,6.20
2018,04,01,02,56,6.20
2018,04,01,02,57,6.20
2018,04,01,02,58,6.10
2018,04,01,02,59,6.10
2018,04,01,03,00,6.10
2018,04,01,03,01,6.00
2018,04,01,03,02,6.00
2018,04,01,03,03,6.00
2018,04,01,03,04,6.00
2018,04,01,03,05,6.00
2018,04,01,03,06,5.90
2018,04,01,03,07,5.90
2018,04,01,03,08,5.90
2018,04,01,03,09,5.90
2018,04,01,03,10,5.80
2018,04,01,03,11,5.80
2018,04,01,03,12,5.80
2018,04,01,03,13,5.80
2018,04,01,03,14,5.80
2018,04,01,03,15,5.80
2018,04,01,03,16,5.80
2018,04,01,03,17,5.80
2018,04,01,03,18,5.80
2018,04,01,03,19,5.80
2018,04,01,03,20,5.80
2018,04,01,03,21,5.70
2018,04,01,03,22,5.70
2018,04,01,03,23,5.70
2018,04,01,03,24,5.70
2018,04,01,03,25,5.70
2018,04,01,03,26,5.60
2018,04,01,03,27,5.60
2018,04,01,03,28,5.60
2018,04,01,03,29,5.60
2018,04,01,03,30,5.60
2018,04,01,03,31,5.60
2018,04,01,03,32,5.60
2018,04,01,03,33,5.60
2018,04,01,03,34,5.60
2018,04,01,03,35,5.60
2018,04,01,03,36,5.60
2018,04,01,03,37,5.60
2018,04,01,03,38,5.60
2018,04,01,03,39,5.60
2018,04,01,03,40,5.60
2018,04,01,03,41,5.60
2018,04,01,03,42,5.60
2018,04,01,03,43,5.60
2018,04,01,03,44,5.50
2018,04,01,03,45,5.50
2018,04,01,03,46,5.50
2018,04,01,03,47,5.50
2018,04,01,03,48,5.40
2018,04,01,03,49,5.40
2018,04,01,03,50,5.40
2018,04,01,03,51,5.40
2018,04,01,03,52,5.40
2018,04,01,03,53,5.40
2018,04,01,03,54,5.40
2018,04,01,03,55,5.40
2018,04,01,03,56,5.30
2018,04,01,03,57,5.30
2018,04,01,03,58,5.30
2018,04,01,03,59,5.30
2018,04,01,04,00,5.30
2018,04,01,04,01,5.20
2018,04,01,04,02,5.20
2018,04,01,04,03,5.20
2018,04,01,04,04,5.20
2018,04,01,04,05,5.20
2018,04,01,04,06,5.10
2018,04,01,04,07,5.10
2018,04,01,04,08,5.10
2018,04,01,04,09,5.00
2018,04,01,04,10,5.00
2018,04,01,04,11,4.90
2018,04,01,04,12,4.90
2018,04,01,04,13,4.90
2018,04,01,04,14,4.80
2018,04,01,04,15,4.80
2018,04,01,04,16,4.80
2018,04,01,04,17,4.80
2018,04,01,04,18,4.70
2018,04,01,04,19,4.70
2018,04,01,04,20,4.70
2018,04,01,04,21,4.70
2018,04,01,04,22,4.70
2018,04,01,04,23,4.70
2018,04,01,04,24,4.60
2018,04,01,04,25,4.60
2018,04,01,04,26,4.60
2018,04,01,04,27,4.60
2018,04,01,04,28,4.60
2018,04,01,04,29,4.50
2018,04,01,04,30,4.50
2018,04,01,04,31,4.50
2018,04,01,04,32,4.50
2018,04,01,04,33,4.40
2018,04,01,04,34,4.40
2018,04,01,04,35,4.40
2018,04,01,04,36,4.30
2018,04,01,04,37,4.30
2018,04,01,04,38,4.30
2018,04,01,04,39,4.30
2018,04,01,04,40,4.20
2018,04,01,04,41,4.20
2018,04,01,04,42,4.20
2018,04,01,04,43,4.20
2018,04,01,04,44,4.20
2018,04,01,04,45,4.10
2018,04,01,04,46,4.10
2018,04,01,04,47,4.10
2018,04,01,04,48,4.10
2018,04,01,04,49,4.10
2018,04,01,04,50,4.10
2018,04,01,04,51,4.00
2018,04,01,04,52,4.00
2018,04,01,04,53,4.00
2018,04,01,04,54,4.00
2018,04,01,04,55,4.00
2018,04,01,04,56,3.90
2018,04,01,04,57,3.90
2018,04,01,04,58,3.90
2018,04,01,04,59,3.90
2018,04,01,05,00,3.90
2018,04,01,05,01,3.90
2018,04,01,05,02,3.90
2018,04,01,05,03,3.90
2018,04,01,05,04,3.90
2018,04,01,05,05,3.90
2018,04,01,05,06,3.90
2018,04,01,05,07,3.90
2018,04,01,05,08,3.90
2018,04,01,05,09,3.90
2018,04,01,05,10,3.90
2018,04,01,05,11,3.90
2018,04,01,05,12,3.90
2018,04,01,05,13,3.80
2018,04,01,05,14,3.80
2018,04,01,05,15,3.80
2018,04,01,05,16,3.80
2018,04,01,05,17,3.80
2018,04,01,05,18,3.70
2018,04,01,05,19,3.70
2018,04,01,05,20,3.70
2018,04,01,05,21,3.70
2018,04,01,05,22,3.70
2018,04,01,05,23,3.70
2018,04,01,05,24,3.70
2018,04,01,05,25,3.70
2018,04,01,05,26,3.70
2018,04,01,05,27,3.70
2018,04,01,05,28,3.70
2018,04,01,05,29,3.70
2018,04,01,05,30,3.70
2018,04,01,05,31,3.70
2018,04,01,05,32,3.60
2018,04,01,05,33,3.60
2018,04,01,05,34,3.60
2018,04,01,05,35,3.60
2018,04,01,05,36,3.60
2018,04,01,05,37,3.60
2018,04,01,05,38,3.60
2018,04,01,05,39,3.50
2018,04,01,05,40,3.50
2018,04,01,05,41,3.50
2018,04,01,05,42,3.50
2018,04,01,05,43,3.50
2018,04,01,05,44,3.40
2018,04,01,05,45,3.40
2018,04,01,05,46,3.40
2018,04,01,05,47,3.40
2018,04,01,05,48,3.40
2018,04,01,05,49,3.40
2018,04,01,05,50,3.40
2018,04,01,05,51,3.40
2018,04,01,05,52,3.40
2018,04,01,05,53,3.40
2018,04,01,05,54,3.40
2018,04,01,05,55,3.40
2018,04,01,05,56,3.40
2018,04,01,05,57,3.40
2018,04,01,05,58,3.40
2018,04,01,05,59,3.40
2018,04,01,06,00,3.30
2018,04,01,06,01,3.30
2018,04,01,06,02,3.30
2018,04,01,06,03,3.30
2018,04,01,06,04,3.30
2018,04,01,06,05,3.30
2018,04,01,06,06,3.30
2018,04,01,06,07,3.30
2018,04,01,06,08,3.20
2018,04,01,06,09,3.20
2018,04,01,06,10,3.20
2018,04,01,06,11,3.10
2018,04,01,06,12,3.10
2018,04,01,06,13,3.10
2018,04,01,06,14,3.10
2018,04,01,06,15,3.00
2018,04,01,06,16,3.00
2018,04,01,06,17,3.00
2018,04,01,06,18,2.90
2018,04,01,06,19,2.90
2018,04,01,06,20,2.80
2018,04,01,06,21,2.80
2018,04,01,06,22,2.80
2018,04,01,06,23,2.80
2018,04,01,06,24,2.70
2018,04,01,06,25,2.70
2018,04,01,06,26,2.70
2018,04,01,06,27,2.70
2018,04,01,06,28,2.70
2018,04,01,06,29,2.60
2018,04,01,06,30,2.60
2018,04,01,06,31,2.60
2018,04,01,06,32,2.60
2018,04,01,06,33,2.60
2018,04,01,06,34,2.50
2018,04,01,06,35,2.50
2018,04,01,06,36,2.50
2018,04,01,06,37,2.40
2018,04,01,06,38,2.40
2018,04,01,06,39,2.40
2018,04,01,06,40,2.40
2018,04,01,06,41,2.40
2018,04,01,06,42,2.40
2018,04,01,06,43,2.40
2018,04,01,06,44,2.30
2018,04,01,06,45,2.40
2018,04,01,06,46,2.30
2018,04,01,06,47,2.30
2018,04,01,06,48,2.30
2018,04,01,06,49,2.30
2018,04,01,06,50,2.30
2018,04,01,06,51,2.30
2018,04,01,06,52,2.30
2018,04,01,06,53,2.30
2018,04,01,06,54,2.30
2018,04,01,06,55,2.30
2018,04,01,06,56,2.30
2018,04,01,06,57,2.30
2018,04,01,06,58,2.20
2018,04,01,06,59,2.20
2018,04,01,07,00,2.20
2018,04,01,07,01,2.20
2018,04,01,07,02,2.20
2018,04,01,07,03,2.20
2018,04,01,07,04,2.20
2018,04,01,07,05,2.10
2018,04,01,07,06,2.10
2018,04,01,07,07,2.10
2018,04,01,07,08,2.10
2018,04,01,07,09,2.10
2018,04,01,07,10,2.10
2018,04,01,07,11,2.10
2018,04,01,07,12,2.10
2018,04,01,07,13,2.10
2018,04,01,07,14,2.10
2018,04,01,07,15,2.10
2018,04,01,07,16,2.00
2018,04,01,07,17,2.00
2018,04,01,07,18,2.00
2018,04,01,07,19,2.00
2018,04,01,07,20,2.00
2018,04,01,07,21,2.00
2018,04,01,07,22,1.90
2018,04,01,07,23,1.90
2018,04,01,07,24,1.90
2018,04,01,07,25,1.90
2018,04,01,07,26,1.90
2018,04,01,07,27,1.80
2018,04,01,07,28,1.80
2018,04,01,07,29,1.80
2018,04,01,07,30,1.80
2018,04,01,07,31,1.80
2018,04,01,07,32,1.80
2018,04,01,07,33,1.80
2018,04,01,07,34,1.80
2018,04,01,07,35,1.70
2018,04,01,07,36,1.70
2018,04,01,07,37,1.70
2018,04,01,07,38,1.70
2018,04,01,07,39,1.70
2018,04,01,07,40,1.70
2018,04,01,07,41,1.60
2018,04,01,07,42,1.60
2018,04,01,07,43,1.60
2018,04,01,07,44,1.60
2018,04,01,07,45,1.60
2018,04,01,07,46,1.60
2018,04,01,07,47,1.50
2018,04,01,07,48,1.50
2018,04,01,07,49,1.50
2018,04,01,07,50,1.50
2018,04,01,07,51,1.50
2018,04,01,07,52,1.50
2018,04,01,07,53,1.50
2018,04,01,07,54,1.60
2018,04,01,07,55,1.60
2018,04,01,07,56,1.60
2018,04,01,07,57,1.70
2018,04,01,07,58,1.70
2018,04,01,07,59,1.70
2018,04,01,08,00,1.70
2018,04,01,08,01,1.70
2018,04,01,08,02,1.70
2018,04,01,08,03,1.70
2018,04,01,08,04,1.70
2018,04,01,08,05,1.70
2018,04,01,08,06,1.70
2018,04,01,08,07,1.80
2018,04,01,08,08,1.80
2018,04,01,08,09,1.90
2018,04,01,08,10,1.90
2018,04,01,08,11,2.00
2018,04,01,08,12,2.10
2018,04,01,08,13,2.20
2018,04,01,08,14,2.30
2018,04,01,08,15,2.30
2018,04,01,08,16,2.40
2018,04,01,08,17,2.50
2018,04,01,08,18,2.60
2018,04,01,08,19,2.60
2018,04,01,08,20,2.70
2018,04,01,08,21,2.80
2018,04,01,08,22,2.80
2018,04,01,08,23,2.90
2018,04,01,08,24,2.90
2018,04,01,08,25,2.90
2018,04,01,08,26,3.00
2018,04,01,08,27,3.00
2018,04,01,08,28,3.10
2018,04,01,08,29,3.10
2018,04,01,08,30,3.10
2018,04,01,08,31,3.20
2018,04,01,08,32,3.20
2018,04,01,08,33,3.30
2018,04,01,08,34,3.30
2018,04,01,08,35,3.30
2018,04,01,08,36,3.40
2018,04,01,08,37,3.40
2018,04,01,08,38,3.50
2018,04,01,08,39,3.50
2018,04,01,08,40,3.50
2018,04,01,08,41,3.60
2018,04,01,08,42,3.60
2018,04,01,08,43,3.60
2018,04,01,08,44,3.60
2018,04,01,08,45,3.70
2018,04,01,08,46,3.70
2018,04,01,08,47,3.80
2018,04,01,08,48,3.80
2018,04,01,08,49,3.80
2018,04,01,08,50,3.80
2018,04,01,08,51,3.80
2018,04,01,08,52,3.80
2018,04,01,08,53,3.90
2018,04,01,08,54,3.90
2018,04,01,08,55,3.90
2018,04,01,08,56,3.90
2018,04,01,08,57,3.90
2018,04,01,08,58,4.00
2018,04,01,08,59,4.00
2018,04,01,09,00,4.10
2018,04,01,09,01,4.10
2018,04,01,09,02,4.10
2018,04,01,09,03,4.20
2018,04,01,09,04,4.20
2018,04,01,09,05,4.20
2018,04,01,09,06,4.20
2018,04,01,09,07,4.30
2018,04,01,09,08,4.30
2018,04,01,09,09,4.30
2018,04,01,09,10,4.40
2018,04,01,09,11,4.40
2018,04,01,09,12,4.40
2018,04,01,09,13,4.40
2018,04,01,09,14,4.40
2018,04,01,09,15,4.40
2018,04,01,09,16,4.40
2018,04,01,09,17,4.40
2018,04,01,09,18,4.30
2018,04,01,09,19,4.40
2018,04,01,09,20,4.40
2018,04,01,09,21,4.40
2018,04,01,09,22,4.50
2018,04,01,09,23,4.50
2018,04,01,09,24,4.40
2018,04,01,09,25,4.40
2018,04,01,09,26,4.30
2018,04,01,09,27,4.30
2018,04,01,09,28,4.30
2018,04,01,09,29,4.30
2018,04,01,09,30,4.30
2018,04,01,09,31,4.40
2018,04,01,09,32,4.40
2018,04,01,09,33,4.40
2018,04,01,09,34,4.40
2018,04,01,09,35,4.40
2018,04,01,09,36,4.50
2018,04,01,09,37,4.50
2018,04,01,09,38,4.60
2018,04,01,09,39,4.60
2018,04,01,09,40,4.70
2018,04,01,09,41,4.80
2018,04,01,09,42,4.90
2018,04,01,09,43,4.90
2018,04,01,09,44,5.00
2018,04,01,09,45,5.10
2018,04,01,09,46,5.10
2018,04,01,09,47,5.10
2018,04,01,09,48,5.10
2018,04,01,09,49,5.10
2018,04,01,09,50,5.10
2018,04,01,09,51,5.00
2018,04,01,09,52,5.00
2018,04,01,09,53,5.00
2018,04,01,09,54,4.90
2018,04,01,09,55,4.90
2018,04,01,09,56,4.90
2018,04,01,09,57,4.90
2018,04,01,09,58,4.90
2018,04,01,09,59,4.90
2018,04,01,10,00,5.00
2018,04,01,10,01,5.10
2018,04,01,10,02,5.10
2018,04,01,10,03,5.10
2018,04,01,10,04,5.10
2018,04,01,10,05,5.10
2018,04,01,10,06,5.10
2018,04,01,10,07,5.10
2018,04,01,10,08,5.00
2018,04,01,10,09,4.90
2018,04,01,10,10,4.80
2018,04,01,10,11,4.80
2018,04,01,10,12,4.80
2018,04,01,10,13,4.80
2018,04,01,10,14,4.80
2018,04,01,10,15,4.70
2018,04,01,10,16,4.70
2018,04,01,10,17,4.70
2018,04,01,10,18,4.70
2018,04,01,10,19,4.70
2018,04,01,10,20,4.60
2018,04,01,10,21,4.60
2018,04,01,10,22,4.60
2018,04,01,10,23,4.60
2018,04,01,10,24,4.60
2018,04,01,10,25,4.60
2018,04,01,10,26,4.60
2018,04,01,10,27,4.60
2018,04,01,10,28,4.50
2018,04,01,10,29,4.50
2018,04,01,10,30,4.40
2018,04,01,10,31,4.40
2018,04,01,10,32,4.40
2018,04,01,10,33,4.40
2018,04,01,10,34,4.40
2018,04,01,10,35,4.40
2018,04,01,10,36,4.40
2018,04,01,10,37,4.40
2018,04,01,10,38,4.40
2018,04,01,10,39,4.40
2018,04,01,10,40,4.40
2018,04,01,10,41,4.30
2018,04,01,10,42,4.40
2018,04,01,10,43,4.30
2018,04,01,10,44,4.30
2018,04,01,10,45,4.40
2018,04,01,10,46,4.40
2018,04,01,10,47,4.40
2018,04,01,10,48,4.40
2018,04,01,10,49,4.50
2018,04,01,10,50,4.60
2018,04,01,10,51,4.60
2018,04,01,10,52,4.70
2018,04,01,10,53,4.70
2018,04,01,10,54,4.80
2018,04,01,10,55,4.80
2018,04,01,10,56,4.90
2018,04,01,10,57,4.90
2018,04,01,10,58,4.90
2018,04,01,10,59,4.90
2018,04,01,11,00,5.00
2018,04,01,11,01,5.00
2018,04,01,11,02,5.10
2018,04,01,11,03,5.10
2018,04,01,11,04,5.10
2018,04,01,11,05,5.20
2018,04,01,11,06,5.20
2018,04,01,11,07,5.20
2018,04,01,11,08,5.20
2018,04,01,11,09,5.10
2018,04,01,11,10,5.20
2018,04,01,11,11,5.20
2018,04,01,11,12,5.20
2018,04,01,11,13,5.20
2018,04,01,11,14,5.20
2018,04,01,11,15,5.20
2018,04,01,11,16,5.20
2018,04,01,11,17,5.20
2018,04,01,11,18,5.30
2018,04,01,11,19,5.30
2018,04,01,11,20,5.30
2018,04,01,11,21,5.40
2018,04,01,11,22,5.40
2018,04,01,11,23,5.40
2018,04,01,11,24,5.40
2018,04,01,11,25,5.50
2018,04,01,11,26,5.50
2018,04,01,11,27,5.40
2018,04,01,11,28,5.40
2018,04,01,11,29,5.40
2018,04,01,11,30,5.40
2018,04,01,11,31,5.40
2018,04,01,11,32,5.40
2018,04,01,11,33,5.40
2018,04,01,11,34,5.50
2018,04,01,11,35,5.60
2018,04,01,11,36,5.70
2018,04,01,11,37,5.70
2018,04,01,11,38,5.80
2018,04,01,11,39,5.90
2018,04,01,11,40,5.90
2018,04,01,11,41,6.00
2018,04,01,11,42,6.10
2018,04,01,11,43,6.20
2018,04,01,11,44,6.30
2018,04,01,11,45,6.30
2018,04,01,11,46,6.30
2018,04,01,11,47,6.30
2018,04,01,11,48,6.30
2018,04,01,11,49,6.30
2018,04,01,11,50,6.20
2018,04,01,11,51,6.10
2018,04,01,11,52,6.00
2018,04,01,11,53,6.00
2018,04,01,11,54,5.90
2018,04,01,11,55,5.80
2018,04,01,11,56,5.70
2018,04,01,11,57,5.70
2018,04,01,11,58,5.60
2018,04,01,11,59,5.50
2018,04,01,12,00,5.40
2018,04,01,12,01,5.30
2018,04,01,12,02,5.30
2018,04,01,12,03,5.20
2018,04,01,12,04,5.20
2018,04,01,12,05,5.10
2018,04,01,12,06,5.10
2018,04,01,12,07,5.00
2018,04,01,12,08,5.00
2018,04,01,12,09,4.90
2018,04,01,12,10,4.80
2018,04,01,12,11,4.80
2018,04,01,12,12,4.70
2018,04,01,12,13,4.70
2018,04,01,12,14,4.60
2018,04,01,12,15,4.60
2018,04,01,12,16,4.60
2018,04,01,12,17,4.60
2018,04,01,12,18,4.70
2018,04,01,12,19,4.70
2018,04,01,12,20,4.80
2018,04,01,12,21,4.90
2018,04,01,12,22,5.00
2018,04,01,12,23,5.00
2018,04,01,12,24,5.00
2018,04,01,12,25,5.10
2018,04,01,12,26,5.10
2018,04,01,12,27,5.20
2018,04,01,12,28,5.20
2018,04,01,12,29,5.20
2018,04,01,12,30,5.30
2018,04,01,12,31,5.30
2018,04,01,12,32,5.40
2018,04,01,12,33,5.50
2018,04,01,12,34,5.50
2018,04,01,12,35,5.60
2018,04,01,12,36,5.60
2018,04,01,12,37,5.60
2018,04,01,12,38,5.60
2018,04,01,12,39,5.70
2018,04,01,12,40,5.80
2018,04,01,12,41,5.80
2018,04,01,12,42,5.80
2018,04,01,12,43,5.90
2018,04,01,12,44,5.80
2018,04,01,12,45,5.80
2018,04,01,12,46,5.90
2018,04,01,12,47,5.90
2018,04,01,12,48,5.90
2018,04,01,12,49,5.90
2018,04,01,12,50,5.90
2018,04,01,12,51,5.90
2018,04,01,12,52,5.90
2018,04,01,12,53,5.80
2018,04,01,12,54,5.70
2018,04,01,12,55,5.70
2018,04,01,12,56,5.70
2018,04,01,12,57,5.60
2018,04,01,12,58,5.60
2018,04,01,12,59,5.50
2018,04,01,13,00,5.50
2018,04,01,13,01,5.40
2018,04,01,13,02,5.40
2018,04,01,13,03,5.30
2018,04,01,13,04,5.30
2018,04,01,13,05,5.30
2018,04,01,13,06,5.30
2018,04,01,13,07,5.30
2018,04,01,13,08,5.30
2018,04,01,13,09,5.30
2018,04,01,13,10,5.30
2018,04,01,13,11,5.30
2018,04,01,13,12,5.30
2018,04,01,13,13,5.30
2018,04,01,13,14,5.20
2018,04,01,13,15,5.20
2018,04,01,13,16,5.20
2018,04,01,13,17,5.20
2018,04,01,13,18,5.10
2018,04,01,13,19,5.10
2018,04,01,13,20,5.10
2018,04,01,13,21,5.10
2018,04,01,13,22,5.10
2018,04,01,13,23,5.10
2018,04,01,13,24,5.10
2018,04,01,13,25,5.10
2018,04,01,13,26,5.10
2018,04,01,13,27,5.10
2018,04,01,13,28,5.10
2018,04,01,13,29,5.10
2018,04,01,13,30,5.10
2018,04,01,13,31,5.10
2018,04,01,13,32,5.10
2018,04,01,13,33,5.20
2018,04,01,13,34,5.20
2018,04,01,13,35,5.10
2018,04,01,13,36,5.10
2018,04,01,13,37,5.10
2018,04,01,13,38,5.10
2018,04,01,13,39,5.10
2018,04,01,13,40,5.00
2018,04,01,13,41,5.00
2018,04,01,13,42,5.00
2018,04,01,13,43,5.00
2018,04,01,13,44,5.00
2018,04,01,13,45,5.00
2018,04,01,13,46,5.10
2018,04,01,13,47,5.10
2018,04,01,13,48,5.10
2018,04,01,13,49,5.10
2018,04,01,13,50,5.10
2018,04,01,13,51,5.10
2018,04,01,13,52,5.10
2018,04,01,13,53,5.10
2018,04,01,13,54,5.10
2018,04,01,13,55,5.10
2018,04,01,13,56,5.10
2018,04,01,13,57,5.10
2018,04,01,13,58,5.10
2018,04,01,13,59,5.10
2018,04,01,14,00,5.00
2018,04,01,14,01,5.00
2018,04,01,14,02,5.00
2018,04,01,14,03,5.00
2018,04,01,14,04,5.00
2018,04,01,14,05,4.90
2018,04,01,14,06,4.90
2018,04,01,14,07,4.90
2018,04,01,14,08,4.90
2018,04,01,14,09,4.80
2018,04,01,14,10,4.80
2018,04,01,14,11,4.80
2018,04,01,14,12,4.80
2018,04,01,14,13,4.80
2018,04,01,14,14,4.80
2018,04,01,14,15,4.90
2018,04,01,14,16,4.90
2018,04,01,14,17,4.90
2018,04,01,14,18,4.90
2018,04,01,14,19,4.90
2018,04,01,14,20,4.90
2018,04,01,14,21,4.90
2018,04,01,14,22,4.90
2018,04,01,14,23,4.90
2018,04,01,14,24,4.90
2018,04,01,14,25,4.90
2018,04,01,14,26,4.90
2018,04,01,14,27,4.90
2018,04,01,14,28,4.90
2018,04,01,14,29,4.90
2018,04,01,14,30,4.90
2018,04,01,14,31,5.00
2018,04,01,14,32,5.00
2018,04,01,14,33,5.10
2018,04,01,14,34,5.10
2018,04,01,14,35,5.20
2018,04,01,14,36,5.20
2018,04,01,14,37,5.30
2018,04,01,14,38,5.30
2018,04,01,14,39,5.30
2018,04,01,14,40,5.30
2018,04,01,14,41,5.30
2018,04,01,14,42,5.30
2018,04,01,14,43,5.30
2018,04,01,14,44,5.30
2018,04,01,14,45,5.30
2018,04,01,14,46,5.30
2018,04,01,14,47,5.30
2018,04,01,14,48,5.30
2018,04,01,14,49,5.30
2018,04,01,14,50,5.30
2018,04,01,14,51,5.30
2018,04,01,14,52,5.30
2018,04,01,14,53,5.30
2018,04,01,14,54,5.30
2018,04,01,14,55,5.20
2018,04,01,14,56,5.20
2018,04,01,14,57,5.20
2018,04,01,14,58,5.20
2018,04,01,14,59,5.20
2018,04,01,15,00,5.10
2018,04,01,15,01,5.00
2018,04,01,15,02,5.00
2018,04,01,15,03,4.90
2018,04,01,15,04,4.90
2018,04,01,15,05,4.80
2018,04,01,15,06,4.80
2018,04,01,15,07,4.80
2018,04,01,15,08,4.70
2018,04,01,15,09,4.70
2018,04,01,15,10,4.70
2018,04,01,15,11,4.70
2018,04,01,15,12,4.70
2018,04,01,15,13,4.70
2018,04,01,15,14,4.80
2018,04,01,15,15,4.80
2018,04,01,15,16,4.90
2018,04,01,15,17,5.00
2018,04,01,15,18,5.10
2018,04,01,15,19,5.20
2018,04,01,15,20,5.30
2018,04,01,15,21,5.30
2018,04,01,15,22,5.30
2018,04,01,15,23,5.30
2018,04,01,15,24,5.30
2018,04,01,15,25,5.30
2018,04,01,15,26,5.30
2018,04,01,15,27,5.30
2018,04,01,15,28,5.30
2018,04,01,15,29,5.20
2018,04,01,15,30,5.20
2018,04,01,15,31,5.20
2018,04,01,15,32,5.10
2018,04,01,15,33,5.10
2018,04,01,15,34,5.10
2018,04,01,15,35,5.00
2018,04,01,15,36,5.00
2018,04,01,15,37,4.90
2018,04,01,15,38,4.90
2018,04,01,15,39,4.90
2018,04,01,15,40,4.90
2018,04,01,15,41,4.90
2018,04,01,15,42,4.90
2018,04,01,15,43,4.90
2018,04,01,15,44,4.90
2018,04,01,15,45,4.90
2018,04,01,15,46,4.90
2018,04,01,15,47,4.80
2018,04,01,15,48,4.80
2018,04,01,15,49,4.80
2018,04,01,15,50,4.80
2018,04,01,15,51,4.80
2018,04,01,15,52,4.70
2018,04,01,15,53,4.70
2018,04,01,15,54,4.70
2018,04,01,15,55,4.70
2018,04,01,15,56,4.70
2018,04,01,15,57,4.70
2018,04,01,15,58,4.70
2018,04,01,15,59,4.70
2018,04,01,16,00,4.70
2018,04,01,16,01,4.70
2018,04,01,16,02,4.70
2018,04,01,16,03,4.70
2018,04,01,16,04,4.60
2018,04,01,16,05,4.60
2018,04,01,16,06,4.50
2018,04,01,16,07,4.40
2018,04,01,16,08,4.40
2018,04,01,16,09,4.40
2018,04,01,16,10,4.40
2018,04,01,16,11,4.40
2018,04,01,16,12,4.40
2018,04,01,16,13,4.40
2018,04,01,16,14,4.40
2018,04,01,16,15,4.30
2018,04,01,16,16,4.30
2018,04,01,16,17,4.30
2018,04,01,16,18,4.30
2018,04,01,16,19,4.30
2018,04,01,16,20,4.30
2018,04,01,16,21,4.30
2018,04,01,16,22,4.40
2018,04,01,16,23,4.40
2018,04,01,16,24,4.50
2018,04,01,16,25,4.50
2018,04,01,16,26,4.60
2018,04,01,16,27,4.60
2018,04,01,16,28,4.70
2018,04,01,16,29,4.80
2018,04,01,16,30,4.80
2018,04,01,16,31,4.90
2018,04,01,16,32,4.90
2018,04,01,16,33,4.90
2018,04,01,16,34,4.90
2018,04,01,16,35,4.90
2018,04,01,16,36,4.90
2018,04,01,16,37,4.90
2018,04,01,16,38,4.90
2018,04,01,16,39,4.90
2018,04,01,16,40,4.90
2018,04,01,16,41,4.90
2018,04,01,16,42,4.90
2018,04,01,16,43,5.00
2018,04,01,16,44,5.00
2018,04,01,16,45,5.00
2018,04,01,16,46,5.00
2018,04,01,16,47,5.00
2018,04,01,16,48,5.00
2018,04,01,16,49,5.00
2018,04,01,16,50,5.00
2018,04,01,16,51,5.10
2018,04,01,16,52,5.10
2018,04,01,16,53,5.20
2018,04,01,16,54,5.30
2018,04,01,16,55,5.30
2018,04,01,16,56,5.40
2018,04,01,16,57,5.40
2018,04,01,16,58,5.50
2018,04,01,16,59,5.50
2018,04,01,17,00,5.60
2018,04,01,17,01,5.60
2018,04,01,17,02,5.70
2018,04,01,17,03,5.80
2018,04,01,17,04,5.80
2018,04,01,17,05,5.90
2018,04,01,17,06,5.90
2018,04,01,17,07,6.00
2018,04,01,17,08,6.00
2018,04,01,17,09,6.10
2018,04,01,17,10,6.10
2018,04,01,17,11,6.20
2018,04,01,17,12,6.20
2018,04,01,17,13,6.20
2018,04,01,17,14,6.20
2018,04,01,17,15,6.30
2018,04,01,17,16,6.30
2018,04,01,17,17,6.30
2018,04,01,17,18,6.30
2018,04,01,17,19,6.30
2018,04,01,17,20,6.30
2018,04,01,17,21,6.30
2018,04,01,17,22,6.30
2018,04,01,17,23,6.30
2018,04,01,17,24,6.30
2018,04,01,17,25,6.30
2018,04,01,17,26,6.30
2018,04,01,17,27,6.40
2018,04,01,17,28,6.40
2018,04,01,17,29,6.40
2018,04,01,17,30,6.50
2018,04,01,17,31,6.50
2018,04,01,17,32,6.50
2018,04,01,17,33,6.60
2018,04,01,17,34,6.50
2018,04,01,17,35,6.50
2018,04,01,17,36,6.50
2018,04,01,17,37,6.60
2018,04,01,17,38,6.60
2018,04,01,17,39,6.60
2018,04,01,17,40,6.60
2018,04,01,17,41,6.70
2018,04,01,17,42,6.70
2018,04,01,17,43,6.80
2018,04,01,17,44,6.80
2018,04,01,17,45,6.90
2018,04,01,17,46,7.00
2018,04,01,17,47,7.10
2018,04,01,17,48,7.20
2018,04,01,17,49,7.20
2018,04,01,17,50,7.20
2018,04,01,17,51,7.30
2018,04,01,17,52,7.30
2018,04,01,17,53,7.30
2018,04,01,17,54,7.40
2018,04,01,17,55,7.40
2018,04,01,17,56,7.50
2018,04,01,17,57,7.50
2018,04,01,17,58,7.60
2018,04,01,17,59,7.60
2018,04,01,18,00,7.50
2018,04,01,18,01,7.50
2018,04,01,18,02,7.50
2018,04,01,18,03,7.50
2018,04,01,18,04,7.50
2018,04,01,18,05,7.50
2018,04,01,18,06,7.50